Torna al catalogo

STARLINK-6193

AttivoComunicazioniVLEO
NORAD 56904·PAYLOAD·🇺🇸 United States

Lanciato Jun 12, 2023 da Cape Canaveral Space Force Station

Loading…

Prossimi Passaggi (prossime 24 ore)

TLE

AggiornatoSource: CelesTrak SupGP

Epoca: Sep 14, 2026, 14:12 UTC

1 56904C 23083AE  26257.59215278 -.00012605  00000+0 -45656-3 0  2572
2 56904  43.0024  83.9563 0001315 255.6660 232.5030 15.27584166    14

Traccia STARLINK-6193 in tempo reale con AllMySat

Download on the App Store